Location: Blandford
(50.8667°N, 2.1667°W)
Time: 13:23:24
(UTC+00:00)

Landsat 7 - Pass Details

Date: 09 April 2020
Orbit: 701 x 703 km, 98.1° (Epoch: 28 May)

Event Time Altitude Azimuth Distance (km) Brightness Sun altitude
Exits shadow 21:25:17 41° 181° (S) 1,020 4.3 -21.2°
Maximum altitude 21:26:55 75° 256° (WSW) 735 3.9 -21.4°
Drops below altitude 10° 21:31:43 10° 343° (NNW) 2,183 7.3 -21.9°
Sets 21:34:00 0° 345° (NNW) 3,106 8.2 -22.2°
